American Canyon, CA

7:39 AM PST on February 23, 2017 (GMT -0800)
Napa County

Weather History for KAPC - July, 2013

Change the Weather History Date:

Monday, July 15, 2013

  Actual Average Record
Temperature  
Mean Temperature 62 °F 65 °F  
Max Temperature 72 °F 78 °F 96 °F (1998)
Min Temperature 51 °F 53 °F 44 °F (1920)
Degree Days  
Heating Degree Days 3    
Month to date heating degree days 14  
Since 1 June heating degree days 44  
Since 1 July heating degree days 14  
Cooling Degree Days 0    
Month to date cooling degree days 38  
Year to date cooling degree days 135  
Since 1 June cooling degree days 115  
Growing Degree Days 12 (Base 50)    
Moisture  
Dew Point 51 °F    
Average Humidity 75    
Maximum Humidity 96    
Minimum Humidity 53    
Precipitation  
Precipitation 0.00 in - 0.14 in (1975)
Month to date precipitation 0.00  
Year to date precipitation 1.97  
Since 1 July precipitation 0.00  
Sea Level Pressure  
Sea Level Pressure 29.88 in    
Wind  
Wind Speed 12 mph (WSW)    
Max Wind Speed 21 mph    
Max Gust Speed 25 mph    
Visibility 10 miles    
Events      
T = Trace of Precipitation, MM = Missing Value Source: NWS Daily Summary

Daily Weather History Graph

Daily Weather History Graph

Search for Another Location

Airport or City:

Trip Planner

Search our weather history database for the weather conditions in past years. The results will help you decide how hot, cold, wet, or windy it might be!

Date:

Astronomy

Jul. 15, 2013 Rise Set
Actual Time 5:58 AM PDT 8:31 PM PDT
Civil Twilight 5:27 AM PDT 9:02 PM PDT
Nautical Twilight 4:49 AM PDT 9:40 PM PDT
Astronomical Twilight 4:06 AM PDT 10:22 PM PDT
Moon 1:16 PM PDT (7/15) No Moon Set
Length of Visible Light 15h 34m
Length of Day
14h 33m
Waxing Crescent, 46% of the Moon is Illuminated
Jul 15
Waxing Crescent
Jul 15
First Quarter
Jul 22
Full
Jul 29
Last Quarter
Aug 6
New

Hourly Weather History & Observations

Time (PDT) Temp. Dew Point Humidity Pressure Visibility Wind Dir Wind Speed Gust Speed Precip Events Conditions
12:08 AM 51.8 °F 48.2 °F 88% 29.93 in 10.0 mi West 6.9 mph - N/A   Scattered Clouds
12:30 AM 51.8 °F 48.2 °F 88% 29.93 in 10.0 mi West 8.1 mph - N/A   Scattered Clouds
12:54 AM 52.0 °F 50.0 °F 93% 29.90 in 10.0 mi West 10.4 mph - N/A   Partly Cloudy
1:26 AM 51.8 °F 50.0 °F 94% 29.92 in 10.0 mi West 12.7 mph - N/A   Mostly Cloudy
1:38 AM 51.8 °F 50.0 °F 94% 29.92 in 10.0 mi West 9.2 mph - N/A   Overcast
1:54 AM 52.0 °F 50.0 °F 93% 29.90 in 10.0 mi West 11.5 mph - N/A   Overcast
2:54 AM 52.0 °F 48.9 °F 89% 29.90 in 10.0 mi West 9.2 mph - N/A   Overcast
3:54 AM 52.0 °F 48.9 °F 89% 29.89 in 10.0 mi WNW 11.5 mph - N/A   Overcast
4:54 AM 51.1 °F 48.9 °F 92% 29.88 in 10.0 mi WNW 10.4 mph - N/A   Overcast
5:54 AM 51.1 °F 48.9 °F 92% 29.88 in 10.0 mi WNW 12.7 mph - N/A   Overcast
6:54 AM 51.1 °F 48.0 °F 89% 29.89 in 10.0 mi NW 10.4 mph - N/A   Overcast
7:54 AM 52.0 °F 48.9 °F 89% 29.91 in 10.0 mi West 10.4 mph - N/A   Overcast
8:54 AM 53.1 °F 48.9 °F 86% 29.91 in 10.0 mi West 8.1 mph - N/A   Overcast
9:54 AM 55.0 °F 48.9 °F 80% 29.91 in 10.0 mi West 8.1 mph - N/A   Overcast
10:46 AM 57.2 °F 50.0 °F 77% 29.92 in 10.0 mi West 10.4 mph - N/A   Overcast
10:54 AM 57.9 °F 50.0 °F 75% 29.90 in 10.0 mi WSW 8.1 mph - N/A   Overcast
11:25 AM 60.8 °F 50.0 °F 68% 29.92 in 10.0 mi WNW 9.2 mph - N/A   Mostly Cloudy
11:54 AM 64.9 °F 51.1 °F 61% 29.88 in 10.0 mi SW 9.2 mph - N/A   Mostly Cloudy
12:05 PM 64.4 °F 51.8 °F 64% 29.91 in 10.0 mi SSW 10.4 mph 16.1 mph N/A   Scattered Clouds
12:54 PM 66.9 °F 53.1 °F 61% 29.88 in 10.0 mi SSW 11.5 mph - N/A   Scattered Clouds
1:54 PM 69.1 °F 54.0 °F 58% 29.86 in 10.0 mi SSW 12.7 mph 18.4 mph N/A   Clear
2:54 PM 71.1 °F 54.0 °F 55% 29.84 in 10.0 mi SSW 15.0 mph 20.7 mph N/A   Clear
3:54 PM 72.0 °F 54.0 °F 53% 29.82 in 10.0 mi South 18.4 mph 23.0 mph N/A   Clear
4:54 PM 70.0 °F 53.1 °F 55% 29.81 in 10.0 mi SSW 18.4 mph - N/A   Clear
5:54 PM 69.1 °F 54.0 °F 58% 29.80 in 10.0 mi SSW 18.4 mph - N/A   Clear
6:54 PM 66.9 °F 52.0 °F 59% 29.80 in 10.0 mi West 15.0 mph - N/A   Clear
7:54 PM 61.0 °F 52.0 °F 72% 29.81 in 10.0 mi West 17.3 mph - N/A   Clear
8:54 PM 57.0 °F 51.1 °F 81% 29.83 in 10.0 mi West 16.1 mph - N/A   Clear
9:47 PM 55.4 °F 51.8 °F 88% 29.87 in 10.0 mi West 12.7 mph - N/A   Mostly Cloudy
9:54 PM 55.9 °F 51.1 °F 84% 29.85 in 10.0 mi West 10.4 mph - N/A   Overcast
10:44 PM 55.4 °F 51.8 °F 88% 29.88 in 10.0 mi West 12.7 mph - N/A   Overcast
10:54 PM 55.9 °F 51.1 °F 84% 29.86 in 10.0 mi West 11.5 mph - N/A   Overcast
11:54 PM 55.9 °F 51.1 °F 84% 29.86 in 10.0 mi West 10.4 mph - N/A   Overcast